QPF
0.00 0.00 0.00 0.00 0.00 0.00 0.01 0.02 0.03 0.01 0.01 0.02 0.02 0.02 0.03 0.04 0.05 0.09 0.08 0.05 0.03 0.04 0.03 0.04 0.05 0.06 0.06 0.06 0.06 0.04 0.03 0.03 0.03 0.04 0.04 0.05 0.05 0.04 0.05 0.05 0.07 0.06 0.05
0.00 0.00 0.00 0.00 0.00 0.00 0.00 0.01 0.02 0.02 0.02 0.02 0.01 0.01 0.02 0.04 0.04 0.07 0.07 0.05 0.03 0.03 0.03 0.04 0.05 0.06 0.07 0.07 0.07 0.06 0.04 0.03 0.04 0.05 0.04 0.04 0.05 0.05 0.05 0.05 0.07 0.06 0.04
0.00 0.00 0.00 0.00 0.00 0.00 0.00 0.00 0.01 0.02 0.02 0.02 0.02 0.01 0.01 0.02 0.03 0.06 0.09 0.07 0.05 0.03 0.03 0.04 0.06 0.07 0.06 0.07 0.07 0.07 0.05 0.04 0.04 0.04 0.03 0.04 0.04 0.04 0.04 0.06 0.06 0.06 0.05
0.00 0.00 0.00 0.00 0.00 0.00 0.00 0.00 0.01 0.02 0.04 0.03 0.03 0.02 0.02 0.02 0.02 0.05 0.05 0.07 0.09 0.08 0.05 0.04 0.05 0.07 0.07 0.07 0.06 0.07 0.06 0.05 0.04 0.04 0.04 0.04 0.04 0.04 0.04 0.06 0.06 0.05 0.04
0.00 0.00 0.00 0.00 0.00 0.00 0.00 0.00 0.02 0.03 0.05 0.04 0.03 0.04 0.03 0.03 0.03 0.05 0.04 0.07 0.08 0.12 0.13 0.06 0.04 0.04 0.05 0.05 0.05 0.07 0.07 0.05 0.05 0.06 0.05 0.04 0.03 0.04 0.04 0.05 0.07 0.05 0.04
0.00 0.00 0.00 0.00 0.00 0.01 0.01 0.01 0.01 0.03 0.04 0.05 0.04 0.06 0.04 0.03 0.03 0.05 0.05 0.06 0.06 0.09 0.12 0.08 0.07 0.04 0.03 0.04 0.05 0.07 0.07 0.05 0.05 0.06 0.06 0.06 0.04 0.04 0.04 0.04 0.05 0.04 0.03
0.00 0.00 0.00 0.01 0.01 0.01 0.02 0.02 0.03 0.03 0.05 0.06 0.07 0.07 0.06 0.04 0.04 0.05 0.05 0.06 0.07 0.10 0.14 0.10 0.08 0.09 0.07 0.04 0.03 0.05 0.06 0.07 0.05 0.05 0.07 0.08 0.05 0.04 0.03 0.04 0.05 0.04 0.03
0.00 0.00 0.00 0.01 0.01 0.02 0.01 0.01 0.03 0.04 0.05 0.05 0.06 0.07 0.09 0.08 0.05 0.04 0.05 0.06 0.08 0.10 0.11 0.09 0.07 0.09 0.10 0.11 0.06 0.03 0.04 0.06 0.07 0.07 0.09 0.08 0.06 0.04 0.03 0.03 0.04 0.04 0.04
0.00 0.00 0.00 0.00 0.00 0.01 0.01 0.01 0.02 0.05 0.06 0.05 0.05 0.06 0.08 0.08 0.07 0.06 0.05 0.05 0.08 0.10 0.10 0.08 0.07 0.11 0.11 0.14 0.11 0.04 0.02 0.03 0.05 0.08 0.10 0.12 0.09 0.05 0.03 0.02 0.03 0.05 0.06
0.00 0.00 0.00 0.00 0.01 0.01 0.01 0.01 0.02 0.04 0.05 0.06 0.05 0.05 0.05 0.08 0.09 0.08 0.05 0.05 0.06 0.08 0.09 0.07 0.07 0.12 0.12 0.13 0.11 0.06 0.02 0.01 0.03 0.07 0.09 0.13 0.14 0.10 0.05 0.03 0.04 0.04 0.04
0.00 0.00 0.00 0.01 0.01 0.01 0.01 0.01 0.02 0.03 0.04 0.05 0.06 0.06 0.06 0.07 0.09 0.10 0.07 0.07 0.07 0.08 0.08 0.07 0.06 0.08 0.09 0.12 0.13 0.07 0.03 0.01 0.01 0.05 0.09 0.13 0.16 0.16 0.12 0.08 0.05 0.05 0.05
0.00 0.00 0.00 0.00 0.01 0.01 0.01 0.01 0.01 0.02 0.04 0.05 0.07 0.06 0.05 0.07 0.09 0.09 0.09 0.07 0.07 0.06 0.06 0.05 0.05 0.05 0.08 0.11 0.09 0.07 0.03 0.02 0.01 0.01 0.05 0.09 0.13 0.16 0.16 0.14 0.11 0.10 0.09
0.00 0.00 0.00 0.00 0.01 0.01 0.01 0.02 0.02 0.02 0.03 0.04 0.06 0.06 0.05 0.05 0.06 0.09 0.09 0.08 0.07 0.07 0.05 0.04 0.04 0.04 0.05 0.10 0.09 0.05 0.03 0.01 0.01 0.01 0.02 0.07 0.11 0.15 0.17 0.15 0.14 0.15 0.13
0.00 0.00 0.00 0.00 0.01 0.01 0.01 0.01 0.01 0.02 0.02 0.03 0.03 0.04 0.04 0.04 0.04 0.06 0.08 0.09 0.09 0.08 0.06 0.04 0.05 0.04 0.05 0.09 0.09 0.08 0.05 0.02 0.01 0.01 0.01 0.03 0.05 0.08 0.10 0.11 0.12 0.13 0.14
0.00 0.00 0.00 0.00 0.01 0.01 0.01 0.01 0.01 0.01 0.02 0.03 0.03 0.03 0.04 0.03 0.03 0.03 0.04 0.06 0.08 0.09 0.08 0.07 0.07 0.06 0.06 0.08 0.07 0.07 0.07 0.03 0.01 0.01 0.02 0.02 0.03 0.04 0.06 0.07 0.08 0.09 0.09
0.00 0.00 0.00 0.00 0.00 0.01 0.01 0.01 0.01 0.01 0.01 0.02 0.03 0.03 0.03 0.03 0.02 0.02 0.03 0.04 0.05 0.07 0.08 0.09 0.07 0.06 0.07 0.07 0.07 0.07 0.07 0.04 0.02 0.01 0.01 0.02 0.03 0.03 0.04 0.04 0.05 0.05 0.06
0.00 0.01 0.01 0.00 0.00 0.00 0.01 0.01 0.01 0.01 0.01 0.01 0.02 0.02 0.02 0.03 0.02 0.02 0.02 0.03 0.04 0.05 0.06 0.08 0.07 0.08 0.09 0.09 0.07 0.07 0.07 0.07 0.03 0.02 0.02 0.03 0.03 0.03 0.03 0.03 0.03 0.03 0.04
0.00 0.00 0.00 0.00 0.00 0.00 0.01 0.01 0.01 0.01 0.01 0.01 0.02 0.01 0.02 0.02 0.02 0.02 0.02 0.03 0.04 0.04 0.04 0.05 0.04 0.07 0.08 0.10 0.08 0.08 0.08 0.08 0.05 0.03 0.02 0.03 0.02 0.03 0.03 0.02 0.03 0.03 0.03
0.00 0.00 0.00 0.00 0.00 0.00 0.01 0.01 0.01 0.02 0.02 0.01 0.01 0.01 0.02 0.02 0.03 0.03 0.02 0.03 0.03 0.03 0.04 0.04 0.03 0.04 0.06 0.07 0.08 0.05 0.07 0.07 0.05 0.03 0.02 0.01 0.02 0.02 0.02 0.02 0.02 0.02 0.02
0.00 0.00 0.00 0.00 0.00 0.00 0.00 0.01 0.01 0.02 0.01 0.01 0.01 0.01 0.01 0.01 0.03 0.03 0.03 0.03 0.03 0.03 0.04 0.04 0.03 0.03 0.04 0.05 0.07 0.05 0.04 0.05 0.05 0.03 0.03 0.02 0.01 0.01 0.02 0.03 0.03 0.02 0.02
0.00 0.00 0.00 0.00 0.00 0.00 0.00 0.01 0.01 0.01 0.00 0.00 0.00 0.00 0.01 0.01 0.02 0.03 0.03 0.03 0.03 0.03 0.03 0.05 0.06 0.05 0.04 0.04 0.05 0.06 0.05 0.04 0.03 0.03 0.04 0.04 0.03 0.02 0.01 0.02 0.02 0.03 0.02
0.00 0.00 0.00 0.00 0.00 0.00 0.00 0.01 0.01 0.00 0.00 0.01 0.01 0.01 0.01 0.01 0.01 0.03 0.04 0.03 0.03 0.03 0.03 0.04 0.06 0.07 0.05 0.05 0.06 0.06 0.05 0.05 0.04 0.03 0.03 0.03 0.04 0.04 0.03 0.02 0.01 0.02 0.02
0.00 0.00 0.00 0.00 0.00 0.00 0.00 0.00 0.01 0.00 0.00 0.01 0.02 0.02 0.01 0.01 0.01 0.02 0.06 0.06 0.03 0.02 0.02 0.03 0.05 0.04 0.05 0.05 0.05 0.05 0.04 0.04 0.04 0.04 0.04 0.04 0.03 0.03 0.03 0.03 0.03 0.02 0.02
0.00 0.00 0.00 0.00 0.00 0.00 0.00 0.00 0.00 0.00 0.00 0.01 0.02 0.03 0.02 0.02 0.01 0.02 0.04 0.06 0.07 0.04 0.02 0.02 0.03 0.03 0.03 0.04 0.05 0.05 0.06 0.05 0.04 0.06 0.06 0.06 0.06 0.04 0.02 0.03 0.03 0.02 0.02
0.00 0.00 0.00 0.00 0.00 0.00 0.00 0.00 0.00 0.00 0.01 0.01 0.02 0.02 0.02 0.03 0.02 0.02 0.03 0.04 0.05 0.05 0.04 0.03 0.02 0.03 0.03 0.03 0.04 0.05 0.05 0.06 0.04 0.04 0.07 0.06 0.06 0.06 0.05 0.04 0.03 0.02 0.01
0.00 0.00 0.00 0.00 0.00 0.00 0.00 0.00 0.00 0.00 0.00 0.00 0.01 0.01 0.02 0.03 0.03 0.03 0.03 0.04 0.04 0.04 0.05 0.03 0.02 0.03 0.04 0.04 0.03 0.03 0.04 0.05 0.05 0.03 0.04 0.06 0.04 0.05 0.05 0.06 0.05 0.04 0.03
MSLP
1012.93 1012.96 1012.91 1012.80 1012.64 1012.46 1012.26 1012.07 1011.88 1011.71 1011.55 1011.41 1011.30 1011.23 1011.20 1011.22 1011.29 1011.39 1011.52 1011.67 1011.81 1011.95 1012.08 1012.21 1012.34 1012.48 1012.63 1012.78 1012.94 1013.09 1013.24 1013.39 1013.55 1013.72 1013.94 1014.19 1014.48 1014.80 1015.13 1015.44 1015.71 1015.93 1016.10
1012.96 1012.98 1012.95 1012.87 1012.76 1012.62 1012.45 1012.27 1012.08 1011.87 1011.68 1011.49 1011.33 1011.22 1011.15 1011.13 1011.16 1011.23 1011.34 1011.46 1011.60 1011.73 1011.88 1012.03 1012.20 1012.37 1012.56 1012.74 1012.92 1013.09 1013.24 1013.38 1013.54 1013.72 1013.95 1014.23 1014.55 1014.91 1015.28 1015.63 1015.93 1016.18 1016.37
1012.98 1012.99 1012.99 1012.96 1012.90 1012.81 1012.70 1012.54 1012.36 1012.15 1011.92 1011.69 1011.49 1011.32 1011.19 1011.13 1011.11 1011.13 1011.19 1011.27 1011.37 1011.49 1011.63 1011.79 1011.98 1012.19 1012.41 1012.63 1012.83 1013.01 1013.16 1013.31 1013.47 1013.65 1013.89 1014.19 1014.54 1014.94 1015.35 1015.74 1016.08 1016.36 1016.57
1012.98 1012.99 1013.00 1013.02 1013.02 1013.00 1012.94 1012.83 1012.67 1012.46 1012.21 1011.96 1011.72 1011.50 1011.33 1011.21 1011.14 1011.10 1011.10 1011.13 1011.18 1011.26 1011.38 1011.54 1011.73 1011.96 1012.21 1012.45 1012.67 1012.87 1013.03 1013.18 1013.34 1013.53 1013.77 1014.08 1014.45 1014.88 1015.32 1015.75 1016.13 1016.45 1016.69
1012.95 1012.96 1012.99 1013.04 1013.10 1013.14 1013.14 1013.07 1012.94 1012.74 1012.50 1012.23 1011.97 1011.73 1011.52 1011.36 1011.24 1011.15 1011.10 1011.06 1011.06 1011.09 1011.17 1011.31 1011.49 1011.72 1011.98 1012.24 1012.48 1012.69 1012.86 1013.02 1013.17 1013.36 1013.60 1013.92 1014.30 1014.74 1015.21 1015.67 1016.09 1016.44 1016.72
1012.91 1012.90 1012.94 1013.03 1013.13 1013.21 1013.25 1013.23 1013.13 1012.95 1012.72 1012.46 1012.19 1011.94 1011.73 1011.55 1011.40 1011.28 1011.18 1011.09 1011.03 1011.01 1011.04 1011.14 1011.30 1011.51 1011.76 1012.03 1012.28 1012.50 1012.68 1012.84 1013.00 1013.18 1013.42 1013.73 1014.11 1014.56 1015.04 1015.52 1015.97 1016.35 1016.67
1012.86 1012.83 1012.87 1012.97 1013.09 1013.20 1013.27 1013.27 1013.19 1013.04 1012.83 1012.59 1012.34 1012.11 1011.92 1011.74 1011.60 1011.46 1011.33 1011.21 1011.10 1011.03 1011.00 1011.05 1011.17 1011.35 1011.58 1011.84 1012.09 1012.31 1012.51 1012.67 1012.83 1013.01 1013.24 1013.54 1013.91 1014.35 1014.83 1015.32 1015.79 1016.20 1016.56
1012.81 1012.77 1012.80 1012.89 1013.01 1013.12 1013.20 1013.21 1013.15 1013.01 1012.83 1012.62 1012.41 1012.22 1012.06 1011.92 1011.79 1011.66 1011.53 1011.38 1011.23 1011.11 1011.04 1011.02 1011.09 1011.23 1011.43 1011.67 1011.91 1012.13 1012.33 1012.51 1012.68 1012.86 1013.09 1013.38 1013.73 1014.15 1014.62 1015.10 1015.58 1016.01 1016.39
1012.78 1012.72 1012.73 1012.80 1012.90 1013.00 1013.06 1013.07 1013.01 1012.89 1012.73 1012.56 1012.40 1012.26 1012.15 1012.05 1011.96 1011.85 1011.72 1011.56 1011.39 1011.23 1011.10 1011.03 1011.03 1011.12 1011.28 1011.48 1011.71 1011.93 1012.14 1012.34 1012.52 1012.72 1012.95 1013.23 1013.57 1013.97 1014.42 1014.89 1015.35 1015.79 1016.19
1012.77 1012.68 1012.67 1012.71 1012.77 1012.84 1012.88 1012.88 1012.81 1012.70 1012.57 1012.44 1012.32 1012.23 1012.17 1012.12 1012.07 1011.99 1011.88 1011.71 1011.52 1011.32 1011.14 1011.01 1010.95 1010.98 1011.08 1011.24 1011.45 1011.67 1011.90 1012.11 1012.33 1012.55 1012.79 1013.08 1013.42 1013.80 1014.23 1014.67 1015.12 1015.56 1015.96
1012.75 1012.65 1012.60 1012.61 1012.64 1012.67 1012.68 1012.66 1012.59 1012.49 1012.38 1012.27 1012.19 1012.15 1012.13 1012.13 1012.11 1012.06 1011.95 1011.79 1011.58 1011.34 1011.11 1010.92 1010.80 1010.76 1010.81 1010.93 1011.11 1011.32 1011.56 1011.81 1012.06 1012.32 1012.60 1012.91 1013.25 1013.63 1014.03 1014.45 1014.88 1015.30 1015.70
1012.70 1012.58 1012.51 1012.48 1012.48 1012.48 1012.46 1012.42 1012.34 1012.25 1012.15 1012.08 1012.03 1012.01 1012.03 1012.05 1012.06 1012.02 1011.92 1011.75 1011.53 1011.27 1011.00 1010.76 1010.58 1010.47 1010.46 1010.53 1010.68 1010.88 1011.13 1011.41 1011.71 1012.02 1012.34 1012.68 1013.04 1013.42 1013.82 1014.22 1014.62 1015.02 1015.40
1012.63 1012.49 1012.39 1012.33 1012.29 1012.26 1012.21 1012.15 1012.08 1011.99 1011.91 1011.84 1011.81 1011.82 1011.85 1011.88 1011.90 1011.87 1011.78 1011.62 1011.39 1011.12 1010.82 1010.54 1010.30 1010.14 1010.06 1010.08 1010.19 1010.38 1010.63 1010.93 1011.27 1011.63 1012.01 1012.39 1012.78 1013.17 1013.57 1013.95 1014.33 1014.70 1015.07
1012.54 1012.38 1012.24 1012.14 1012.06 1012.00 1011.93 1011.86 1011.77 1011.69 1011.61 1011.56 1011.53 1011.54 1011.57 1011.61 1011.63 1011.61 1011.53 1011.38 1011.17 1010.90 1010.60 1010.30 1010.02 1009.81 1009.67 1009.64 1009.70 1009.86 1010.10 1010.42 1010.79 1011.19 1011.62 1012.05 1012.47 1012.88 1013.28 1013.65 1014.01 1014.36 1014.70
1012.47 1012.27 1012.09 1011.95 1011.83 1011.72 1011.62 1011.52 1011.43 1011.34 1011.26 1011.20 1011.17 1011.17 1011.20 1011.23 1011.25 1011.25 1011.19 1011.08 1010.90 1010.66 1010.38 1010.08 1009.79 1009.54 1009.37 1009.27 1009.29 1009.40 1009.62 1009.93 1010.31 1010.75 1011.21 1011.68 1012.14 1012.57 1012.97 1013.34 1013.68 1014.01 1014.33
1012.46 1012.21 1011.99 1011.78 1011.60 1011.45 1011.30 1011.17 1011.05 1010.94 1010.84 1010.77 1010.72 1010.70 1010.71 1010.74 1010.77 1010.79 1010.78 1010.72 1010.60 1010.42 1010.19 1009.93 1009.66 1009.40 1009.19 1009.05 1009.01 1009.07 1009.25 1009.53 1009.91 1010.35 1010.84 1011.33 1011.81 1012.27 1012.68 1013.04 1013.37 1013.68 1013.98
1012.58 1012.28 1011.98 1011.70 1011.45 1011.23 1011.02 1010.84 1010.67 1010.51 1010.38 1010.27 1010.19 1010.14 1010.13 1010.15 1010.19 1010.25 1010.29 1010.30 1010.27 1010.19 1010.05 1009.85 1009.62 1009.38 1009.16 1008.99 1008.90 1008.91 1009.04 1009.28 1009.63 1010.06 1010.55 1011.05 1011.55 1012.01 1012.43 1012.80 1013.12 1013.41 1013.70
1012.85 1012.48 1012.10 1011.74 1011.41 1011.10 1010.81 1010.55 1010.32 1010.10 1009.91 1009.74 1009.61 1009.51 1009.47 1009.48 1009.53 1009.62 1009.73 1009.83 1009.90 1009.93 1009.90 1009.81 1009.65 1009.46 1009.25 1009.07 1008.95 1008.91 1008.99 1009.18 1009.49 1009.90 1010.37 1010.87 1011.37 1011.84 1012.26 1012.63 1012.95 1013.24 1013.51
1013.25 1012.81 1012.36 1011.92 1011.49 1011.09 1010.71 1010.37 1010.04 1009.74 1009.47 1009.22 1009.02 1008.87 1008.78 1008.75 1008.81 1008.92 1009.09 1009.28 1009.46 1009.61 1009.70 1009.72 1009.66 1009.54 1009.38 1009.22 1009.08 1009.02 1009.05 1009.20 1009.47 1009.85 1010.29 1010.78 1011.28 1011.76 1012.18 1012.56 1012.88 1013.16 1013.42
1013.72 1013.22 1012.71 1012.19 1011.68 1011.19 1010.73 1010.29 1009.87 1009.48 1009.11 1008.77 1008.48 1008.24 1008.09 1008.02 1008.04 1008.17 1008.37 1008.62 1008.90 1009.16 1009.38 1009.52 1009.58 1009.55 1009.46 1009.34 1009.22 1009.16 1009.17 1009.29 1009.53 1009.87 1010.30 1010.78 1011.27 1011.75 1012.19 1012.57 1012.90 1013.18 1013.44
1014.17 1013.64 1013.07 1012.50 1011.93 1011.37 1010.83 1010.31 1009.81 1009.32 1008.86 1008.42 1008.03 1007.69 1007.45 1007.30 1007.28 1007.37 1007.58 1007.87 1008.21 1008.56 1008.88 1009.14 1009.31 1009.39 1009.39 1009.34 1009.27 1009.23 1009.25 1009.36 1009.59 1009.92 1010.33 1010.80 1011.30 1011.78 1012.23 1012.63 1012.97 1013.27 1013.53
1014.49 1013.94 1013.36 1012.76 1012.16 1011.57 1010.98 1010.41 1009.84 1009.28 1008.72 1008.19 1007.69 1007.25 1006.90 1006.65 1006.54 1006.57 1006.74 1007.02 1007.39 1007.79 1008.19 1008.55 1008.83 1009.02 1009.12 1009.16 1009.16 1009.17 1009.22 1009.35 1009.58 1009.91 1010.32 1010.80 1011.30 1011.80 1012.28 1012.70 1013.06 1013.37 1013.64
1014.61 1014.07 1013.50 1012.91 1012.32 1011.72 1011.13 1010.53 1009.92 1009.31 1008.69 1008.07 1007.48 1006.93 1006.46 1006.10 1005.87 1005.81 1005.90 1006.12 1006.46 1006.88 1007.32 1007.74 1008.12 1008.41 1008.62 1008.76 1008.85 1008.94 1009.05 1009.21 1009.46 1009.80 1010.22 1010.70 1011.22 1011.75 1012.25 1012.71 1013.11 1013.45 1013.73
1014.49 1013.98 1013.45 1012.90 1012.34 1011.77 1011.20 1010.61 1010.01 1009.37 1008.71 1008.04 1007.36 1006.72 1006.13 1005.65 1005.29 1005.10 1005.08 1005.21 1005.49 1005.87 1006.32 1006.78 1007.22 1007.61 1007.92 1008.17 1008.37 1008.54 1008.71 1008.93 1009.21 1009.57 1010.00 1010.49 1011.03 1011.58 1012.11 1012.61 1013.05 1013.43 1013.75
1014.16 1013.69 1013.20 1012.70 1012.20 1011.69 1011.16 1010.62 1010.04 1009.42 1008.75 1008.04 1007.31 1006.59 1005.90 1005.29 1004.81 1004.47 1004.32 1004.33 1004.52 1004.84 1005.26 1005.73 1006.22 1006.68 1007.09 1007.45 1007.74 1008.00 1008.25 1008.53 1008.84 1009.21 1009.65 1010.16 1010.70 1011.27 1011.84 1012.38 1012.87 1013.29 1013.65
1013.69 1013.25 1012.81 1012.37 1011.92 1011.47 1011.00 1010.51 1009.97 1009.38 1008.73 1008.02 1007.26 1006.48 1005.72 1005.00 1004.39 1003.92 1003.62 1003.51 1003.58 1003.82 1004.20 1004.67 1005.19 1005.71 1006.21 1006.66 1007.05 1007.41 1007.73 1008.05 1008.39 1008.78 1009.22 1009.72 1010.27 1010.85 1011.44 1012.02 1012.55 1013.03 1013.45
Thickness
5735 5734 5732 5730 5729 5727 5726 5724 5724 5725 5725 5726 5726 5727 5728 5730 5730 5731 5732 5733 5734 5736 5738 5740 5741 5743 5745 5746 5747 5748 5749 5749 5750 5750 5750 5751 5752 5752 5753 5754 5754 5754 5755
5733 5731 5729 5727 5725 5724 5723 5721 5721 5721 5721 5722 5722 5723 5725 5726 5727 5728 5729 5730 5731 5733 5735 5737 5740 5742 5743 5744 5745 5746 5747 5748 5748 5749 5749 5750 5750 5751 5752 5752 5753 5753 5753
5732 5729 5725 5723 5721 5720 5719 5718 5717 5717 5717 5718 5718 5720 5722 5723 5724 5726 5727 5728 5729 5731 5732 5735 5737 5739 5741 5743 5744 5744 5745 5746 5747 5747 5748 5748 5749 5750 5750 5751 5752 5752 5752
5729 5726 5722 5719 5718 5717 5715 5714 5712 5711 5711 5712 5713 5715 5718 5720 5721 5723 5725 5727 5728 5729 5730 5732 5734 5737 5738 5740 5742 5743 5744 5744 5745 5746 5747 5747 5748 5748 5749 5750 5750 5750 5751
5725 5723 5719 5717 5715 5713 5711 5710 5708 5707 5705 5707 5709 5712 5714 5716 5718 5720 5722 5724 5726 5727 5728 5730 5731 5734 5736 5738 5739 5741 5741 5742 5743 5744 5745 5746 5746 5747 5748 5748 5748 5749 5749
5723 5720 5718 5715 5713 5710 5707 5706 5704 5704 5703 5704 5706 5708 5710 5713 5714 5716 5718 5721 5723 5725 5726 5727 5729 5730 5732 5735 5737 5738 5739 5740 5741 5742 5743 5744 5744 5745 5746 5746 5747 5747 5747
5721 5719 5716 5713 5711 5707 5705 5703 5701 5700 5700 5702 5700 5699 5704 5708 5710 5712 5714 5716 5719 5722 5723 5725 5726 5728 5729 5731 5734 5735 5737 5738 5739 5740 5741 5742 5742 5743 5744 5745 5745 5746 5746
5720 5718 5714 5712 5710 5706 5703 5701 5699 5696 5696 5698 5694 5690 5689 5694 5701 5709 5710 5712 5714 5718 5720 5722 5724 5725 5727 5729 5730 5732 5734 5735 5737 5738 5739 5740 5741 5742 5742 5743 5744 5744 5745
5719 5716 5714 5711 5708 5705 5701 5699 5697 5694 5691 5693 5694 5689 5683 5681 5689 5698 5704 5707 5710 5712 5715 5718 5721 5723 5725 5726 5727 5729 5731 5733 5734 5736 5738 5738 5739 5740 5741 5741 5742 5743 5743
5719 5716 5713 5710 5707 5704 5701 5699 5698 5694 5691 5688 5690 5692 5691 5689 5684 5685 5694 5701 5705 5708 5710 5714 5717 5719 5721 5722 5724 5726 5727 5729 5731 5733 5735 5736 5737 5738 5739 5740 5740 5741 5741
5719 5716 5713 5710 5706 5703 5700 5698 5696 5693 5691 5688 5687 5687 5688 5689 5689 5684 5683 5690 5697 5702 5707 5710 5713 5715 5717 5719 5720 5722 5724 5726 5728 5730 5732 5734 5735 5736 5737 5738 5738 5739 5739
5717 5715 5713 5709 5706 5703 5700 5697 5695 5693 5691 5689 5687 5686 5685 5683 5683 5684 5683 5685 5689 5695 5702 5705 5708 5711 5713 5715 5716 5718 5720 5722 5724 5726 5728 5730 5731 5733 5734 5735 5736 5737 5738
5714 5713 5712 5708 5705 5703 5700 5697 5695 5692 5691 5688 5687 5686 5686 5686 5687 5686 5684 5684 5686 5691 5696 5700 5704 5707 5709 5711 5712 5713 5715 5717 5720 5722 5724 5726 5728 5729 5731 5732 5733 5734 5735
5714 5713 5711 5708 5706 5703 5700 5697 5693 5692 5691 5689 5688 5687 5686 5686 5687 5686 5684 5682 5681 5684 5689 5694 5700 5703 5705 5706 5708 5709 5711 5713 5715 5718 5720 5721 5723 5725 5726 5728 5729 5731 5732
5714 5712 5710 5708 5706 5703 5699 5696 5692 5690 5689 5688 5687 5686 5685 5686 5687 5687 5687 5685 5679 5676 5679 5688 5693 5698 5701 5702 5704 5705 5707 5709 5711 5713 5715 5717 5719 5720 5722 5723 5725 5726 5728
5711 5709 5708 5707 5705 5702 5699 5696 5692 5690 5688 5687 5686 5684 5684 5684 5685 5685 5685 5684 5683 5679 5677 5685 5689 5694 5697 5699 5699 5701 5703 5705 5707 5709 5710 5712 5714 5716 5718 5719 5720 5721 5723
5709 5707 5706 5704 5703 5701 5698 5695 5692 5689 5687 5685 5685 5684 5683 5683 5683 5683 5683 5682 5682 5681 5677 5681 5687 5690 5692 5693 5694 5696 5699 5700 5701 5704 5705 5707 5709 5711 5713 5714 5715 5716 5717
5706 5705 5704 5702 5700 5698 5697 5694 5691 5689 5686 5684 5683 5682 5681 5682 5681 5681 5680 5680 5680 5680 5678 5676 5680 5684 5686 5689 5690 5692 5694 5696 5697 5699 5701 5703 5704 5706 5707 5709 5710 5711 5712
5701 5701 5700 5698 5696 5695 5694 5692 5690 5688 5686 5684 5683 5681 5680 5679 5678 5678 5678 5678 5678 5680 5678 5676 5676 5679 5681 5684 5685 5687 5689 5691 5693 5694 5696 5697 5699 5700 5701 5703 5704 5705 5706
5694 5694 5693 5692 5692 5691 5689 5688 5686 5685 5684 5683 5682 5681 5679 5678 5676 5676 5676 5676 5676 5676 5675 5674 5673 5674 5676 5679 5679 5679 5680 5684 5686 5690 5690 5691 5693 5694 5695 5697 5698 5699 5700
5687 5687 5686 5685 5685 5684 5683 5681 5679 5679 5678 5679 5679 5679 5678 5677 5676 5675 5674 5673 5673 5672 5671 5670 5670 5670 5671 5672 5673 5674 5674 5677 5680 5683 5684 5685 5686 5688 5689 5690 5691 5692 5693
5679 5678 5677 5677 5676 5677 5675 5674 5672 5671 5672 5672 5673 5675 5675 5674 5673 5673 5673 5672 5671 5669 5667 5667 5666 5666 5667 5669 5670 5671 5670 5670 5670 5677 5677 5678 5681 5682 5683 5684 5685 5686 5687
5670 5669 5668 5668 5667 5667 5667 5666 5665 5663 5664 5665 5666 5668 5670 5671 5670 5669 5668 5668 5668 5668 5668 5666 5664 5664 5665 5667 5666 5666 5666 5666 5667 5671 5672 5671 5675 5675 5677 5678 5679 5681 5681
5661 5660 5659 5659 5659 5659 5658 5657 5656 5655 5656 5658 5659 5661 5662 5663 5664 5663 5662 5662 5662 5663 5665 5665 5664 5664 5665 5665 5665 5664 5664 5664 5665 5666 5668 5664 5668 5669 5670 5671 5673 5674 5675
5651 5650 5650 5649 5648 5649 5649 5647 5646 5645 5646 5649 5651 5653 5654 5655 5657 5657 5656 5656 5657 5658 5660 5662 5662 5661 5661 5662 5662 5660 5658 5656 5655 5658 5661 5660 5661 5661 5662 5663 5665 5666 5667
5641 5640 5639 5639 5638 5638 5638 5637 5635 5634 5635 5638 5641 5644 5646 5646 5648 5649 5648 5649 5649 5652 5654 5655 5655 5655 5655 5656 5656 5656 5654 5652 5651 5651 5655 5655 5655 5655 5653 5657 5658 5659 5659